Tracking 25707 objects as of 29-Jun-2022
HD Live streaming from Space Station
objects crossing your sky now

STARLINK-3994

Track STARLINK-3994 now!
10-day predictions
STARLINK-3994 is classified as:


NORAD ID: 52633
Int'l Code: 2022-052AM
Perigee: 354.9 km
Apogee: 359.1 km
Inclination: 53.2 °
Period: 91.5 minutes
Semi major axis: 6727 km
RCS: Unknown
Launch date: May 14, 2022
Source: United States (US)
Launch site: AIR FORCE EASTERN TEST RANGE (AFETR)
aabbcc
Your satellite tracking list
Your tracking list is empty




NASA's NSSDC Master Catalog

Two Line Element Set (TLE):
1 52633U 22052AM  22180.58334491  .00060543  00000-0  43317-3 0  9999
2 52633  53.2130 213.1932 0003152  14.8763 205.2755 15.73169540  1307
Source of the keplerian elements: AFSPC